Location: Ku?niki
(51.4449°N, 17.8974°E)
Time: 06:52:17
(UTC+00:00)

Cosmos 1300 Rocket - Pass Details

Date: 18 September 2020
Orbit: 602 x 626 km, 82.5° (Epoch: 19 October)

Event Time Altitude Azimuth Distance (km) Brightness Sun altitude
Rises 18:17:20 0° 180° (S) 2,879 6.8 -13.4°
Reaches altitude 10° 18:19:33 10° 177° (S) 1,982 5.9 -13.7°
Maximum altitude 18:23:53 65° 97° (E) 690 3.5 -14.3°
Drops below altitude 10° 18:28:18 10° 16° (NNE) 2,010 6.3 -14.9°
Sets 18:30:34 0° 13° (NNE) 2,924 7.1 -15.3°
